TimeEDT,TemperatureF,Dew PointF,Humidity,Sea Level PressureIn,VisibilityMPH,Wind Direction,Wind SpeedMPH,Gust SpeedMPH,PrecipitationIn,Events,Conditions,WindDirDegrees,DateUTC
12:26 AM,62.6,60.8,94,30.05,1.2,Calm,Calm,-,N/A,,Overcast,0,2012-10-05 04:26:00
12:39 AM,62.6,60.8,94,30.05,2.0,Calm,Calm,-,N/A,,Overcast,0,2012-10-05 04:39:00
12:52 AM,61.0,61.0,100,30.05,2.0,Calm,Calm,-,N/A,,Overcast,0,2012-10-05 04:52:00
12:57 AM,60.8,60.8,100,30.04,1.0,Calm,Calm,-,N/A,,Overcast,0,2012-10-05 04:57:00
1:05 AM,60.8,60.8,100,30.04,0.5,South,3.5,-,N/A,Fog,Fog,170,2012-10-05 05:05:00
1:52 AM,60.1,60.1,100,30.04,0.2,Calm,Calm,-,N/A,Fog,Fog,0,2012-10-05 05:52:00
2:52 AM,57.9,57.9,100,30.03,0.2,Calm,Calm,-,N/A,Fog,Fog,0,2012-10-05 06:52:00
3:50 AM,55.4,55.4,100,30.03,1.0,Calm,Calm,-,N/A,,Mist,0,2012-10-05 07:50:00
3:52 AM,55.9,55.0,97,30.03,1.0,Calm,Calm,-,N/A,,Mist,0,2012-10-05 07:52:00
3:59 AM,55.4,55.4,100,30.03,0.5,Calm,Calm,-,N/A,Fog,Fog,0,2012-10-05 07:59:00
4:52 AM,53.1,52.0,96,30.03,0.2,Calm,Calm,-,N/A,Fog,Fog,0,2012-10-05 08:52:00
5:22 AM,53.6,53.6,100,30.02,1.2,Calm,Calm,-,N/A,,Mostly Cloudy,0,2012-10-05 09:22:00
5:26 AM,53.6,53.6,100,30.02,3.0,Calm,Calm,-,N/A,,Mostly Cloudy,0,2012-10-05 09:26:00
5:30 AM,53.6,51.8,94,30.02,1.8,Calm,Calm,-,N/A,,Mostly Cloudy,0,2012-10-05 09:30:00
5:37 AM,51.8,51.8,100,30.02,1.0,Calm,Calm,-,N/A,,Mist,0,2012-10-05 09:37:00
5:44 AM,53.6,51.8,94,30.02,1.2,Calm,Calm,-,N/A,,Partly Cloudy,0,2012-10-05 09:44:00
5:52 AM,54.0,53.1,97,30.03,3.0,NNE,3.5,-,N/A,,Partly Cloudy,20,2012-10-05 09:52:00
6:52 AM,57.0,55.0,93,30.03,10.0,North,4.6,-,N/A,,Clear,360,2012-10-05 10:52:00
7:52 AM,59.0,55.9,90,30.03,10.0,NNW,4.6,-,N/A,,Clear,340,2012-10-05 11:52:00
8:52 AM,63.0,57.0,81,30.04,10.0,North,4.6,-,N/A,,Clear,350,2012-10-05 12:52:00
9:52 AM,66.9,57.0,70,30.03,10.0,WNW,5.8,-,N/A,,Clear,300,2012-10-05 13:52:00
10:52 AM,71.1,55.9,59,30.02,10.0,WNW,10.4,-,N/A,,Clear,290,2012-10-05 14:52:00
11:52 AM,73.0,55.0,53,30.01,10.0,WNW,8.1,-,N/A,,Clear,290,2012-10-05 15:52:00
12:52 PM,73.9,55.0,52,29.99,10.0,WNW,11.5,-,N/A,,Clear,300,2012-10-05 16:52:00
1:52 PM,77.0,53.1,43,29.97,10.0,NW,9.2,-,N/A,,Clear,310,2012-10-05 17:52:00
3:52 PM,77.0,54.0,45,29.94,10.0,SW,4.6,-,N/A,,Clear,230,2012-10-05 19:52:00
4:52 PM,75.9,55.0,48,29.94,10.0,SW,5.8,-,N/A,,Clear,230,2012-10-05 20:52:00
5:52 PM,72.0,57.9,61,29.94,10.0,Calm,Calm,-,N/A,,Clear,0,2012-10-05 21:52:00
6:52 PM,66.0,57.9,75,29.94,10.0,Calm,Calm,-,N/A,,Clear,0,2012-10-05 22:52:00
7:52 PM,61.0,59.0,93,29.96,10.0,WNW,3.5,-,N/A,,Clear,300,2012-10-05 23:52:00
8:52 PM,61.0,59.0,93,29.95,9.0,Calm,Calm,-,N/A,,Clear,0,2012-10-06 00:52:00
9:52 PM,60.1,57.9,93,29.95,10.0,Calm,Calm,-,N/A,,Clear,0,2012-10-06 01:52:00
10:52 PM,57.9,55.9,93,29.94,8.0,Calm,Calm,-,N/A,,Clear,0,2012-10-06 02:52:00
11:52 PM,57.9,55.0,90,29.92,8.0,Calm,Calm,-,0.01,,Clear,0,2012-10-06 03:52:00